Tracking 17560 objects as of 11-February-2016
HD Live streaming from Space Station
objects crossing your sky now

COSMOS 2251 DEB

Track COSMOS 2251 DEB now!
10-day predictions


NORAD ID: 37326
Int'l Code: 1993-036BKS
Perigee: 683.4 km
Apogee: 782.2 km
Inclination: 74.0 °
Period: 99.3 minutes
Semi major axis: 7103 km
RCS: 0.0127 m2 (small)
Launch date: June 16, 1993
Source: Commonwealth of Independent States (former USSR) (CIS)
Launch site: PLESETSK MISSILE AND SPACE COMPLEX (PKMTR)

Note: This is SATELLITE DEBRIS
Your satellite tracking list
Your tracking list is empty





NASA's NSSDC Master Catalog

Two Line Element Set (TLE):
1 37326U 93036BKS 16040.00001975 +.00000679 +00000-0 +17642-3 0  9990
2 37326 074.0288 280.5581 0069511 222.2572 137.3221 14.5299751334692
Source of the keplerian elements: AFSPC

N2YO: 892